Regional Weather Roundup
Issued by NWS Grand Forks, ND

Home | Current Version | Previous Version | Graphics & Text | Print | Product List | Glossary On
Versions: 1 2 3 4 5 6 7 8 9 10 11 12 13 14 15 16 17 18 19 20 21 22 23 24 25 26 27 28 29 30 31 32 33 34 35 36 37 38 39 40 41 42 43 44 45 46 47 48 49 50
000
ASUS43 KFGF 240510
RWRFGF
PRAIRIE TO PINES  WEATHER ROUNDUP
NATIONAL WEATHER SERVICE EASTERN NORTH DAKOTA/GRAND FORKS ND
1200 AM CDT MON APR 24 2017

 **SATELLITE DATA USED TO AUGMENT SKY COVER AT AUTOMATED STATIONS**
 *****  WEATHER ACROSS EASTERN NORTH DAKOTA  *****

CITY           SKY/WX    TMP DP  RH WIND       PRES   REMARKS
GRAND FORKS    CLOUDY    34  31  88 NE15      29.94F WCI  24
GRAND FRKS AFB CLOUDY    32  28  86 E14       29.93F WCI  22
DEVILS LAKE    CLOUDY    29  27  92 E16       29.93S WCI  17
FARGO          FAIR      38  33  82 E13       29.84F
WAHPETON ARPT  FAIR      41  34  75 E17G24    29.79F
$$

 ***** WEATHER ACROSS CENTRAL AND WESTERN NORTH DAKOTA  *****

CITY           SKY/WX    TMP DP  RH WIND       PRES   REMARKS
BISMARCK       CLOUDY    33  31  92 E20G29    29.78F WCI  21
MINOT          CLOUDY    31  26  82 E14       29.87F WCI  21
JAMESTOWN      CLOUDY    32  30  92 NE15G26   29.81F WCI  22
MINOT AFB      CLOUDY    30  26  82 E13       29.88F WCI  20
GARRISON         N/A     28  27  96 E17G30    29.81F WCI  16
WILLISTON      CLOUDY    31  27  85 E12       29.80F WCI  22
DICKINSON      FOG       29  28  96 E17       29.70F VSB 1/4 WCI  17
HETTINGER      FOG       32  31  96 E16       29.69F VSB 1/2 WCI  21
$$

 *****  OTHER AIRPORT OBSERVATIONS IN OUR AREA  *****

CITY           SKY/WX    TMP DP  RH WIND       PRES   REMARKS
WALHALLA       NOT AVBL
GRAFTON AIRPOR CLOUDY    32  28  86 E12       30.00F WCI  23
VALLEY CITY AR MIX PCPN  32  32 100 NE17      29.83F WCI  21
CANDO          NOT AVBL
CAVALIER APRT  CLOUDY    34  19  55 NE7       29.99S
GWINNER        CLEAR     37  36  93 MISG      29.77F
SHEYENNE NWR     N/A     38  33  83 E13       29.95S
ROLLA          CLOUDY    30  18  59 E14       29.95S WCI  20
 ***** THE ABOVE OBSERVATIONS ARE NON NWS ARE NOT QUALITY
       CONTROLLED AND MAY MIS-REPORT RAIN FOR SNOW...
$$

  *****  WEATHER ACROSS NORTHERN MINNESOTA  *****

CITY           SKY/WX    TMP DP  RH WIND       PRES   REMARKS
FLAG ISLAND    FAIR      34  12  40 NE9       30.03F
WARROAD        FAIR      36  19  51 E17G23    30.02F
ROSEAU         MOCLDY    36  21  55 E9        30.01F
HALLOCK        CLOUDY    36  16  44 E12       29.98F
THF RVR FALLS  FLURRIES  31  29  92 E17G25    29.93F WCI  19
BAUDETTE       CLOUDY    34  15  46 E7        30.02F
WASKISH        MIX PCPN  30  30 100 E12       29.99F WCI  21
CROOKSTON      MIX PCPN  34  30  86 E14       29.92F WCI  24
STEPHEN NDAWN    N/A     34  25  69 E12         N/A
GREENBUSH NDAW   N/A     34  25  69 E10         N/A
$$
  *****  WEATHER ACROSS CENTRAL AND WEST MINNESOTA  *****

CITY           SKY/WX    TMP DP  RH WIND       PRES   REMARKS
FOSSTON        FAIR      32  27  80 E12G24    29.91F WCI  23
BEMIDJI        MOCLDY    32  30  92 E16G22    29.94F WCI  22
PARK RAPIDS    FAIR      35  27  72 E15       29.91F
ELBOW LAKE     FAIR      40  36  83 SE26G35   29.79F
WADENA         FAIR      34  28  80 E17G24    29.88F WCI  23
DETROIT LAKES  MOCLDY    36  32  87 E13G22    29.86F
MOORHEAD       FAIR      37  32  81 E10       29.84F
FERGUS FALLS   FAIR      39  32  75 E18G28    29.79F
MORRIS MN      FAIR      43  36  75 E30G36    29.77F
STAPLES        FAIR      34  27  75 E10G16    29.91F
$$
  *****  WEATHER ELSEWHERE ACROSS MINNESOTA  *****

CITY           SKY/WX    TMP DP  RH WIND       PRES   REMARKS
DULUTH         CLOUDY    32  27  81 E17G29    30.01F WCI  21
INTRNTL FALLS  CLOUDY    32  25  75 SE8       30.04F WCI  25
ELY            LGT SNOW  30  28  93 E5        30.08F
CLOQUET        CLOUDY    34  27  75 E12G21    30.00F
WHEATON        FAIR      43  36  75 E20       29.79F
BRAINERD       FAIR      34  25  69 E8        29.94F
HIBBING        CLOUDY    31  28  89 E10       30.04F WCI  22
ALEXANDRIA     FAIR      38  33  82 E20G30    29.85F
SAINT CLOUD    FAIR      38  33  82 E12G18    29.89F
MINNEAPOLIS    FAIR      52  39  61 NE8       29.88F
$$

  *****  WEATHER ACROSS SOUTH DAKOTA  *****

CITY           SKY/WX    TMP DP  RH WIND       PRES   REMARKS
SIOUX FALLS    MOCLDY    58  33  39 S17       29.77F
BROOKINGS      FAIR      56  32  40 S16       29.74F
WATERTOWN      FAIR      53  34  48 SE12      29.70F
HURON          FAIR      57  33  40 SE12      29.65F
SISSETON         N/A     45  38  76 SE10      29.76F
ABERDEEN       FAIR      45  37  73 NE15      29.67F
MITCHELL       FAIR      58  33  39 S17       29.69F
PIERRE         FAIR      48  41  76 N7        29.57F
MOBRIDGE       CLOUDY    39  32  76 NE13      29.66F
RAPID CITY     LGT RAIN  50  42  74 N18       29.66R
$$

  *****  SOME WEATHER IN NEARBY STATES *****

CITY           SKY/WX    TMP DP  RH WIND       PRES   REMARKS
GLASGOW MT     CLOUDY    33  31  92 E16       29.74S WCI  23
GREAT FALLS MT FAIR      40  35  83 E9        29.71S
CHEYENNE WY    FAIR      48  36  63 W6        29.71F
SCOTTSBLUFF NE FAIR      58  38  47 SE13      29.60F
OMAHA NE       FAIR      59  33  37 S16       29.88F
DES MOINES IA  FAIR      55  34  45 SE8       29.95F
DAVENPORT IA   FAIR      51  32  48 S6        30.01S
CHICAGO IL     MOCLDY    44  38  79 NE6       30.05R
EAU CLAIRE WI  FAIR      53  43  68 E9        29.93S
LA CROSSE WI   FAIR      57  39  51 SE6       29.94S
$$

  *****  SOME NATIONAL WEATHER *****

CITY           SKY/WX    TMP DP  RH WIND       PRES   REMARKS
LA GUARDIA NY  MOCLDY    53  40  61 SW7       30.13S
RALEIGH NC     DRIZZLE   53  52  96 E10       29.95F FOG
ATLANTA GA     DRIZZLE   54  53  97 E13       29.80S
NEW ORLEANS LA FAIR      54  51  90 W7        29.97F
OKLAHOMA CITY  FAIR      48  39  71 SE6       29.97F
ALBUQUERQUE NM FAIR      65  30  27 S20       29.92R
SALT LAKE CITY FAIR      53  38  56 SE9       29.81S
LOS ANGELES CA FAIR      60  51  72 SW6       29.87R
BOISE ID       CLOUDY    54  42  64 S5        29.76S
SEATTLE WA     CLOUDY    46  44  93 S7        29.82S
$$

*** WEATHER ACROSS MANITOBA...SASKATCHEWAN AND ONTARIO ***
                ***ONTARIO***

CITY           SKY/WX    TMP DP  RH WIND       PRES   REMARKS
GERALDTON      CLEAR     23  10  58 NE3       30.19S
THUNDER BAY    CLOUDY    34  16  47 E7        30.18R
SIOUX LOOKOUT  PTCLDY    27  10  50 E5        30.11F WCI  21
TORONTO        CLEAR     46  36  66 NW9       30.09R
BIG TROUT LK   CLEAR      5  -2  72 NE5       30.28S WCI  -4
PICKLE LAKE    NOT AVBL
DRYDEN         MOCLDY    28  14  54 E7        30.09F WCI  21
KENORA         PTCLDY    28  10  47 E10       30.06F WCI  19
$$
                *** MANITOBA***

CITY           SKY/WX    TMP DP  RH WIND       PRES   REMARKS
BRANDON        CLOUDY    30  19  64 E16       30.01S WCI  19
DAUPHIN        PTCLDY    30  21  69 SE8       30.06F WCI  23
ISLAND LAKE    NOT AVBL
PILOT MOUND    NOT AVBL
THE PAS        PTCLDY    25  12  58 SE8       30.13S WCI  16
THOMPSON       CLEAR      9  -6  52 E5        30.26F WCI   0
WINNIPEG       CLEAR     30  19  64 NE10      30.05F WCI  21
LYNN LAKE      CLEAR      9  -2  61 E7        30.20S WCI  -3
CHURCHILL      FLURRIES  -4  -9  77 NW7       30.40S WCI -18
GILLAM         CLEAR      0  -8  71 E6        30.33S WCI -12
$$
                ***SASKATCHEWAN***

CITY           SKY/WX    TMP DP  RH WIND       PRES   REMARKS
ESTEVAN        CLOUDY    30  25  80 E17G25    29.85F WCI  18
KINDERSLEY     CLOUDY    32  30  93 E13G18    29.76F WCI  22
LLOYDMINSTER   CLOUDY    32  32 100 E14G21    29.82F WCI  22
PRINCE ALBERT  FLURRIES  32  23  69 E16G24    29.96S WCI  21
REGINA         LGT SNOW  28  27  93 E15G21    29.87F WCI  17
YORKTON        CLOUDY    34  21  60 SE16      29.96S WCI  23
N. BATTLEFORD  LGT RAIN  32 N/A N/A SE13      29.87F WCI  22
LA RONGE       MOCLDY    30  12  47 E8        30.04S WCI  23
SASKATOON      CLOUDY    34  30  86 SE15      29.89F WCI  24
SWIFT CURRENT  CLOUDY    30  30 100 SE12G17   29.73F WCI  21
$$
NOTE: THESE ARE AUTOMATED STATIONS WITH LIMITED QUALITY CONTROL
      "FAIR" INDICATES FEW OR NO CLOUDS BELOW 12,000 FEET WITH NO
      SIGNIFICANT WEATHER AND/OR OBSTRUCTIONS TO VISIBILITY.
      SKY/WX - SKY CONDITION AND SIGNIFICANT WEATHER.
      TMP - AIR TEMPERATURE.    DP   - DEWPOINT TEMPERATURE.
      RH  - RELATIVE HUMIDITY.  PRES - PRESSURE.
      HX  - HEAT INDEX.         WCI  - WIND CHILL INDEX.
$



USA.gov is the U.S. government's official web portal to all federal, state and local government web resources and services.